User: anonymous   Login
Location: Bush Observatory
(40.2653°N, 94.3194°W)
Time: 13:25:39
(UTC-05:00)
Language:

Cosmos 1933 Rocket - Orbit

View from above orbital plane
View from above orbital plane
View from above satellite
View from above satellite

Ground track
Ground track

The orbit data is extracted from the following two-line orbital elements,

1 18959U 88020B   18140.91324599 +.00000068 +00000-0 +52613-5 0  9992
2 18959 082.5356 315.2284 0018416 102.3609 257.9669 14.83379884609564
Epoch (UTC): 20 May 2018 21:55:04
Eccentricity: 0.0018416
inclination: 82.5356°
perigee height: 606 km
apogee height: 631 km
right ascension of ascending node: 315.2284°
argument of perigee: 102.3609°
revolutions per day: 14.83379884
mean anomaly at epoch: 257.9669°
orbit number at epoch: 60956

The dashed part of the orbit path shows where the satellite is in the earth's shadow,  

DLR